FW2418 Weather Reports


time (UTC)temp
F
wind
direction
speed
knots
gust
knots
rain 1hr
in
rain 24hr
in
rain mn
in
humidity
%
barometer
mb
20260903230034 83 192 1.7 3.5 0.00 0.02 0.02 87 1011.7
20260903225034 84 120 0.9 3.5 0.00 0.02 0.02 87 1011.3
20260903224033 84 134 0.9 3.5 0.00 0.02 0.02 87 1011.3
20260903223032 84 147 1.7 2.6 0.00 0.02 0.02 87 1011.0
20260903222031 84 99 0.9 4.3 0.00 0.02 0.02 87 1011.0
20260903221030 85 177 1.7 4.3 0.00 0.02 0.02 86 1011.0
20260903215958 85 112 1.7 3.5 0.00 0.02 0.02 85 1011.3
20260903214957 85 121 0.9 2.6 0.00 0.02 0.02 84 1011.3
20260903213721 85 190 1.7 3.5 0.00 0.02 0.02 84 1011.0
20260903212720 85 140 0.9 2.6 0.00 0.02 0.02 83 1010.6
20260903211719 86 121 0.9 2.6 0.00 0.02 0.02 83 1010.6
20260903210718 86 123 0.9 2.6 0.00 0.02 0.02 82 1010.6
20260903205646 86 117 0.9 1.7 0.00 0.02 0.02 82 1010.6
20260903204645 86 84 1.7 3.5 0.00 0.02 0.02 81 1010.6
20260903203644 87 120 1.7 3.5 0.00 0.02 0.02 81 1010.6
20260903202643 87 73 0.9 2.6 0.00 0.02 0.02 80 1011.0
20260903201643 87 129 0.9 2.6 0.00 0.02 0.02 79 1011.0
20260903200642 87 102 0.9 2.6 0.00 0.02 0.02 78 1011.0
20260903195641 87 87 0.9 4.3 0.00 0.02 0.02 80 1011.3
20260903194640 87 134 1.7 4.3 0.00 0.02 0.02 80 1011.3
20260903193608 87 65 1.7 4.3 0.00 0.02 0.02 81 1011.7
20260903192607 87 53 1.7 5.2 0.00 0.02 0.02 80 1011.7
20260903191535 87 135 1.7 6.1 0.00 0.02 0.02 81 1011.7
20260903190534 88 180 0.9 3.5 0.00 0.02 0.02 80 1011.7
20260903185534 88 140 0.9 3.5 0.00 0.02 0.02 79 1012.0
20260903184533 88 111 0.9 4.3 0.00 0.02 0.02 80 1012.0
20260903183501 87 42 1.7 4.3 0.00 0.02 0.02 81 1012.0
20260903182429 86 119 1.7 4.3 0.00 0.02 0.02 83 1012.0
20260903181428 86 132 0.9 3.5 0.00 0.02 0.02 83 1012.3
20260903180356 86 136 0.9 2.6 0.00 0.02 0.02 84 1012.3
20260903175355 85 85 1.7 2.6 0.00 0.02 0.02 84 1012.3
20260903174354 85 114 0.9 2.6 0.00 0.02 0.02 84 1012.7
20260903173353 85 112 0.9 2.6 0.00 0.02 0.02 86 1012.7
20260903172353 85 149 0.9 2.6 0.00 0.02 0.02 85 1012.7
20260903171352 84 137 0.9 2.6 0.00 0.02 0.02 86 1012.7
20260903170351 84 120 1.7 2.6 0.00 0.02 0.02 85 1012.7
20260903165339 84 151 0.9 2.6 0.00 0.02 0.02 86 1013.0
20260903164338 83 107 0.9 1.7 0.00 0.02 0.02 87 1013.0
20260903163337 83 123 0.9 2.6 0.00 0.02 0.02 85 1013.3
20260903162336 82 193 0.0 3.5 0.00 0.02 0.02 86 1013.3
20260903161335 82 109 1.7 3.5 0.00 0.05 0.02 88 1013.3
20260903160335 82 115 0.9 1.7 0.00 0.05 0.02 90 1013.3
20260903155306 81 120 0.0 1.7 0.00 0.05 0.02 91 1013.3
20260903154302 81 79 0.9 0.9 0.00 0.05 0.02 92 1013.0
20260903153301 80 37 0.9 2.6 0.00 0.05 0.02 94 1013.0
20260903152300 80 70 0.9 3.5 0.00 0.05 0.02 94 1013.0
20260903151259 79 132 1.7 2.6 0.01 0.05 0.02 95 1013.0
20260903150258 79 151 0.9 2.6 0.01 0.05 0.02 95 1013.3
20260903145258 78 8 1.7 3.5 0.02 0.06 0.02 96 1013.3
20260903144257 78 84 0.9 2.6 0.02 0.06 0.02 97 1013.3
20260903143256 79 163 0.9 0.9 0.02 0.06 0.02 97 1013.0
20260903142255 79 127 0.0 3.5 0.02 0.06 0.02 96 1013.0
20260903141255 79 101 0.9 2.6 0.01 0.05 0.01 96 1013.3
20260903140253 80 128 0.9 2.6 0.01 0.05 0.01 95 1013.3
20260903135252 80 126 0.9 1.7 0.00 0.04 0.00 94 1013.0
20260903134252 81 176 0.9 0.9 0.00 0.04 0.00 95 1013.0
20260903133251 80 160 0.0 0.9 0.00 0.04 0.00 95 1013.0
20260903132250 79 159 0.0 0.9 0.00 0.04 0.00 97 1013.0
20260903131249 78 159 0.0 0.9 0.00 0.04 0.00 97 1013.0
20260903130248 78 170 0.0 4.3 0.00 0.04 0.00 96 1013.0
20260903125247 79 154 1.7 4.3 0.00 0.04 0.00 96 1013.0
20260903124247 80 178 1.7 3.5 0.00 0.04 0.00 97 1013.0
20260903123246 79 153 0.9 1.7 0.00 0.04 0.00 98 1013.0
20260903122245 79 169 0.0 0.9 0.00 0.04 0.00 99 1012.7
20260903121244 78 167 0.0 0.9 0.00 0.04 0.00 99 1012.7
20260903120244 78 44 0.0 0.0 0.00 0.04 0.00 99 1012.7
20260903115243 77 44 0.0 0.0 0.00 0.04 0.00 99 1012.3
20260903114242 76 44 0.0 0.0 0.00 0.04 0.00 99 1012.3
20260903113242 76 44 0.0 0.0 0.00 0.04 0.00 99 1012.3
20260903112210 75 44 0.0 0.0 0.00 0.04 0.00 99 1012.3
20260903111209 75 44 0.0 0.0 0.00 0.04 0.00 99 1012.0
20260903110137 75 44 0.0 0.0 0.00 0.04 0.00 99 1011.6
20260903105136 76 44 0.0 0.0 0.00 0.04 0.00 99 1011.6
20260903104136 76 44 0.0 0.0 0.00 0.04 0.00 99 1011.6
20260903103135 76 44 0.0 0.0 0.00 0.04 0.00 98 1011.6
20260903102134 76 44 0.0 0.0 0.00 0.04 0.00 98 1011.3
20260903101102 76 44 0.0 0.0 0.00 0.04 0.00 98 1011.3
20260903095101 76 44 0.0 0.0 0.00 0.04 0.00 98 1011.0
20260903094029 76 44 0.0 0.0 0.00 0.04 0.00 98 1011.0
20260903093028 76 44 0.0 0.0 0.00 0.04 0.00 98 1011.0
20260903092027 76 44 0.0 0.0 0.00 0.04 0.00 98 1011.0
20260903091026 76 44 0.0 0.0 0.00 0.04 0.00 98 1011.3
20260903090025 77 44 0.0 0.0 0.00 0.04 0.00 98 1011.3
20260903085024 77 44 0.0 0.0 0.00 0.04 0.00 98 1011.3
20260903084023 77 44 0.0 0.0 0.00 0.04 0.00 98 1011.0
20260903083023 77 44 0.0 0.0 0.00 0.04 0.00 98 1011.0
20260903081951 77 44 0.0 0.0 0.00 0.04 0.00 98 1011.0
20260903080950 77 44 0.0 0.9 0.00 0.04 0.00 98 1011.0
20260903075949 77 44 0.0 0.9 0.00 0.04 0.00 97 1011.0
20260903074948 77 44 0.9 0.9 0.00 0.04 0.00 97 1011.0
20260903073947 77 44 0.0 0.0 0.00 0.04 0.00 97 1011.0
20260903072946 77 40 0.0 0.9 0.00 0.04 0.00 97 1011.3
20260903071844 77 36 0.9 0.9 0.00 0.04 0.00 97 1011.3
20260903070843 77 36 0.0 0.9 0.00 0.04 0.00 97 1011.3
20260903065842 77 36 0.9 0.9 0.00 0.04 0.00 97 1011.7
20260903064841 77 36 0.0 0.0 0.00 0.04 0.00 97 1011.7
20260903063840 77 36 0.0 0.0 0.00 0.04 0.00 97 1011.7
20260903062840 77 36 0.0 0.0 0.00 0.04 0.00 97 1012.0
20260903061839 77 36 0.0 0.9 0.00 0.04 0.00 97 1012.0
20260903060838 78 36 0.0 0.9 0.00 0.04 0.00 97 1012.0
20260903055837 78 115 0.0 0.0 0.00 0.04 0.00 97 1012.0
20260903054836 78 116 0.0 0.9 0.00 0.04 0.00 96 1012.0
20260903053836 78 115 0.9 0.9 0.00 0.04 0.00 96 1012.3
20260903052835 78 115 0.0 0.9 0.00 0.04 0.00 96 1012.4
20260903051834 78 115 0.0 0.9 0.00 0.04 0.00 96 1012.3
20260903050833 78 115 0.9 0.9 0.00 0.04 0.00 96 1012.7
20260903045832 78 116 0.9 0.9 0.00 0.04 0.00 96 1012.7
20260903044831 78 116 0.0 0.9 0.00 0.04 0.00 96 1012.7
20260903043830 78 115 0.0 0.9 0.00 0.04 0.00 96 1012.7
20260903042758 78 115 0.0 0.0 0.00 0.04 0.00 96 1012.7
20260903041726 78 115 0.0 0.0 0.00 0.04 0.00 95 1012.7
20260903040725 79 116 0.0 0.0 0.00 0.04 0.00 95 1013.0
20260903035724 79 116 0.0 0.9 0.00 0.04 0.04 95 1013.0
20260903034723 79 115 0.0 0.9 0.00 0.04 0.04 95 1013.0
20260903033722 79 101 0.0 0.9 0.00 0.04 0.04 94 1013.0
20260903032650 80 121 0.9 1.7 0.00 0.04 0.04 94 1012.7
20260903031650 80 82 0.0 2.6 0.00 0.04 0.04 94 1012.7
20260903030649 80 107 0.9 1.7 0.00 0.04 0.04 94 1012.7
20260903025648 80 91 0.9 4.3 0.00 0.04 0.04 94 1013.0
20260903024647 80 105 0.9 5.2 0.00 0.04 0.04 95 1013.0
20260903023646 80 121 0.9 1.7 0.00 0.04 0.04 95 1013.0
20260903022645 80 129 0.9 0.9 0.00 0.04 0.04 95 1013.0
20260903021644 80 111 0.9 0.9 0.00 0.04 0.04 95 1013.0
20260903020612 80 51 0.0 0.9 0.00 0.04 0.04 95 1013.0
20260903015540 80 67 0.0 1.7 0.00 0.04 0.04 95 1013.0
20260903014539 80 70 0.9 2.6 0.00 0.04 0.04 95 1012.7
20260903013539 80 79 0.9 2.6 0.00 0.04 0.04 94 1012.7
20260903012538 80 83 0.9 2.6 0.00 0.04 0.04 94 1012.7
20260903011537 81 22 0.9 1.7 0.00 0.04 0.04 93 1012.7
20260903010536 81 77 0.9 1.7 0.00 0.04 0.04 93 1012.7
20260903005535 81 51 0.9 1.7 0.00 0.04 0.04 92 1012.7
20260903004503 81 61 0.9 0.9 0.00 0.04 0.04 92 1012.7
20260903003503 81 72 0.0 0.9 0.00 0.04 0.04 92 1012.7
20260903002502 81 36 0.0 1.7 0.00 0.04 0.04 91 1012.7
20260903001430 81 25 0.0 1.7 0.00 0.04 0.04 91 1012.3
20260903000429 82 60 0.9 2.6 0.00 0.04 0.04 90 1012.3
20260902235357 82 23 1.7 2.6 0.00 0.04 0.04 90 1012.3
20260902234356 82 82 0.9 3.5 0.00 0.04 0.04 89 1012.3
20260902233355 82 62 0.9 3.5 0.00 0.04 0.04 89 1012.3
20260902232354 82 57 0.9 3.5 0.00 0.04 0.04 88 1012.3
20260902231353 83 17 0.9 4.3 0.00 0.04 0.04 88 1012.0